Location: Eaton Estates
(41.3089°N, 82.0057°W)
Time: 03:32:16
(UTC+00:00)

UWE-3 - Visible Passes

Search period start: 29 March 2023 00:00
Search period end: 08 April 2023 00:00
Orbit: 579 x 670 km, 97.7° (Epoch: 28 March)

Date Brightness Start Highest point End Pass type
(mag) Time Alt. Az. Time Alt. Az. Time Alt. Az.
29 Mar ? 08:45:17 10° N 08:48:05 36° N 08:48:05 36° N visible
30 Mar ? 07:28:46 10° NE 07:29:53 14° ENE 07:29:53 14° ENE visible
30 Mar ? 09:04:15 10° N 09:07:09 31° NW 09:07:09 31° NW visible
31 Mar ? 07:46:56 10° NNE 07:48:55 22° NE 07:48:55 22° NE visible
31 Mar ? 09:23:22 10° NNW 09:26:12 23° NW 09:26:12 23° NW visible
01 Apr ? 08:05:22 10° NNE 08:07:58 31° NE 08:07:58 31° NE visible
01 Apr ? 09:42:46 10° NNW 09:45:13 16° WNW 09:45:13 16° WNW visible
02 Apr ? 08:23:59 10° NNE 08:26:59 42° NNE 08:26:59 42° NNE visible
02 Apr ? 10:03:15 10° NW 10:03:54 10° WNW 10:04:15 10° WNW visible
03 Apr ? 08:42:43 10° N 08:46:00 46° NNW 08:46:00 46° NNW visible
04 Apr ? 07:26:17 10° NE 07:27:44 15° ENE 07:27:44 15° ENE visible
04 Apr ? 09:01:37 10° N 09:04:59 36° NW 09:04:59 36° NW visible
05 Apr ? 07:44:20 10° NE 07:46:43 23° ENE 07:46:43 23° ENE visible
05 Apr ? 09:20:40 10° NNW 09:23:59 25° WNW 09:23:59 25° WNW visible
06 Apr ? 08:02:42 10° NNE 08:05:41 36° NE 08:05:41 36° NE visible
06 Apr ? 09:39:59 10° NNW 09:42:42 16° WNW 09:42:57 16° WNW visible
07 Apr ? 08:21:14 10° NNE 08:24:39 53° NNE 08:24:39 53° NNE visible
07 Apr ? 10:00:12 10° NW 10:01:07 11° WNW 10:01:55 10° WNW visible
